QPF
0.00 0.00 0.01 0.00 0.00 0.00 0.00 0.00 0.01 0.01 0.00 0.00 0.00 0.01 0.01 0.01 0.01 0.00 0.00 0.00 0.00 0.01 0.01 0.01 0.01 0.00 0.00 0.01 0.01 0.01 0.02 0.03 0.02 0.02 0.01 0.02 0.02 0.02 0.02 0.03 0.02 0.01 0.03 0.03
0.00 0.00 0.00 0.00 0.00 0.00 0.00 0.00 0.00 0.00 0.00 0.00 0.00 0.01 0.01 0.01 0.01 0.00 0.00 0.00 0.00 0.01 0.01 0.01 0.01 0.00 0.00 0.01 0.01 0.01 0.02 0.03 0.03 0.02 0.02 0.02 0.02 0.03 0.04 0.03 0.02 0.02 0.03 0.02
0.00 0.00 0.00 0.00 0.00 0.00 0.01 0.01 0.00 0.00 0.01 0.01 0.01 0.01 0.01 0.01 0.01 0.00 0.01 0.01 0.01 0.01 0.02 0.01 0.01 0.01 0.01 0.01 0.01 0.02 0.03 0.03 0.03 0.03 0.02 0.02 0.02 0.03 0.03 0.02 0.02 0.03 0.03 0.01
0.00 0.00 0.00 0.00 0.00 0.00 0.01 0.01 0.01 0.01 0.01 0.01 0.01 0.01 0.01 0.01 0.01 0.01 0.01 0.01 0.01 0.01 0.02 0.02 0.03 0.03 0.01 0.01 0.00 0.02 0.03 0.04 0.03 0.03 0.02 0.02 0.02 0.03 0.02 0.02 0.02 0.04 0.03 0.01
0.00 0.00 0.00 0.00 0.00 0.00 0.01 0.01 0.01 0.01 0.01 0.01 0.00 0.00 0.00 0.01 0.01 0.01 0.01 0.01 0.01 0.01 0.02 0.02 0.04 0.03 0.01 0.01 0.00 0.02 0.03 0.03 0.03 0.03 0.04 0.04 0.03 0.03 0.02 0.02 0.02 0.03 0.02 0.02
0.00 0.00 0.00 0.00 0.00 0.00 0.01 0.01 0.01 0.00 0.00 0.00 0.00 0.00 0.00 0.00 0.00 0.01 0.01 0.01 0.01 0.01 0.01 0.03 0.04 0.03 0.01 0.01 0.01 0.03 0.05 0.04 0.04 0.04 0.04 0.04 0.04 0.03 0.02 0.02 0.03 0.04 0.03 0.04
0.00 0.00 0.00 0.00 0.00 0.00 0.01 0.01 0.01 0.01 0.01 0.00 0.00 0.00 0.00 0.00 0.00 0.00 0.00 0.01 0.01 0.01 0.02 0.04 0.04 0.03 0.02 0.02 0.02 0.04 0.06 0.06 0.05 0.04 0.04 0.04 0.03 0.02 0.01 0.01 0.02 0.03 0.03 0.03
0.00 0.00 0.00 0.00 0.00 0.00 0.01 0.01 0.01 0.02 0.02 0.01 0.00 0.00 0.00 0.00 0.00 0.00 0.01 0.01 0.01 0.01 0.03 0.04 0.02 0.04 0.02 0.03 0.05 0.09 0.08 0.08 0.07 0.05 0.04 0.03 0.02 0.01 0.01 0.01 0.01 0.02 0.02 0.02
0.00 0.00 0.00 0.01 0.00 0.00 0.01 0.02 0.01 0.01 0.00 0.00 0.00 0.00 0.00 0.00 0.01 0.00 0.01 0.01 0.01 0.01 0.01 0.02 0.03 0.03 0.04 0.05 0.07 0.08 0.08 0.06 0.05 0.04 0.02 0.03 0.01 0.01 0.01 0.01 0.02 0.03 0.03 0.02
0.00 0.00 0.00 0.00 0.00 0.00 0.01 0.01 0.00 0.00 0.00 0.00 0.00 0.00 0.00 0.01 0.01 0.00 0.01 0.01 0.01 0.01 0.01 0.02 0.03 0.05 0.05 0.05 0.06 0.06 0.06 0.05 0.04 0.03 0.03 0.02 0.02 0.02 0.02 0.02 0.03 0.03 0.02 0.02
0.00 0.01 0.00 0.01 0.01 0.00 0.01 0.01 0.01 0.00 0.00 0.00 0.00 0.00 0.00 0.00 0.00 0.00 0.02 0.01 0.02 0.01 0.01 0.01 0.02 0.03 0.02 0.03 0.05 0.06 0.06 0.04 0.03 0.03 0.02 0.02 0.02 0.02 0.03 0.03 0.03 0.03 0.02 0.01
0.00 0.00 0.00 0.00 0.00 0.00 0.01 0.01 0.01 0.00 0.00 0.00 0.00 0.00 0.00 0.00 0.00 0.01 0.01 0.01 0.01 0.01 0.01 0.01 0.01 0.01 0.02 0.02 0.03 0.04 0.04 0.04 0.03 0.03 0.03 0.03 0.02 0.02 0.02 0.02 0.02 0.02 0.02 0.01
0.00 0.00 0.00 0.00 0.00 0.00 0.00 0.01 0.00 0.00 0.00 0.00 0.00 0.00 0.00 0.00 0.01 0.01 0.01 0.01 0.01 0.00 0.00 0.00 0.00 0.01 0.02 0.02 0.03 0.04 0.04 0.05 0.04 0.04 0.04 0.03 0.02 0.03 0.03 0.02 0.02 0.02 0.02 0.02
0.00 0.00 0.00 0.00 0.00 0.00 0.00 0.00 0.00 0.00 0.00 0.00 0.01 0.00 0.00 0.00 0.00 0.01 0.01 0.01 0.00 0.00 0.01 0.00 0.00 0.01 0.01 0.02 0.08 0.09 0.08 0.07 0.06 0.05 0.03 0.02 0.01 0.02 0.03 0.03 0.03 0.03 0.03 0.03
0.00 0.00 0.00 0.00 0.00 0.00 0.00 0.00 0.00 0.00 0.00 0.01 0.01 0.01 0.00 0.00 0.01 0.01 0.01 0.01 0.01 0.01 0.00 0.00 0.00 0.01 0.01 0.02 0.05 0.07 0.05 0.03 0.04 0.04 0.02 0.01 0.02 0.02 0.03 0.03 0.03 0.03 0.03 0.02
0.00 0.00 0.00 0.00 0.00 0.00 0.00 0.00 0.00 0.00 0.00 0.00 0.01 0.01 0.01 0.01 0.01 0.01 0.02 0.01 0.01 0.01 0.01 0.01 0.01 0.02 0.02 0.02 0.03 0.05 0.06 0.05 0.04 0.03 0.03 0.03 0.03 0.03 0.03 0.03 0.02 0.02 0.02 0.02
0.00 0.00 0.00 0.00 0.00 0.00 0.00 0.00 0.00 0.00 0.00 0.00 0.00 0.01 0.01 0.01 0.02 0.01 0.01 0.01 0.01 0.02 0.02 0.02 0.02 0.02 0.02 0.02 0.03 0.04 0.04 0.05 0.05 0.04 0.04 0.03 0.03 0.02 0.02 0.02 0.02 0.02 0.01 0.01
0.00 0.00 0.00 0.00 0.00 0.00 0.00 0.00 0.00 0.00 0.00 0.00 0.00 0.00 0.01 0.02 0.02 0.01 0.02 0.01 0.02 0.03 0.03 0.02 0.02 0.02 0.02 0.02 0.02 0.03 0.04 0.07 0.08 0.05 0.03 0.02 0.02 0.01 0.01 0.01 0.00 0.01 0.01 0.01
0.00 0.00 0.00 0.00 0.00 0.00 0.00 0.00 0.00 0.00 0.00 0.00 0.01 0.01 0.01 0.01 0.01 0.01 0.03 0.03 0.03 0.02 0.02 0.01 0.01 0.02 0.02 0.01 0.01 0.02 0.03 0.04 0.05 0.05 0.04 0.03 0.02 0.02 0.01 0.01 0.01 0.01 0.01 0.01
0.00 0.00 0.00 0.00 0.00 0.00 0.00 0.00 0.00 0.00 0.00 0.01 0.01 0.01 0.01 0.01 0.01 0.02 0.02 0.03 0.03 0.02 0.01 0.01 0.01 0.01 0.01 0.02 0.02 0.02 0.02 0.01 0.02 0.02 0.02 0.01 0.01 0.01 0.01 0.01 0.01 0.01 0.01 0.01
0.00 0.00 0.00 0.00 0.00 0.00 0.00 0.00 0.00 0.01 0.01 0.01 0.01 0.01 0.01 0.01 0.01 0.01 0.01 0.02 0.02 0.02 0.01 0.01 0.01 0.01 0.01 0.01 0.02 0.02 0.01 0.01 0.01 0.01 0.01 0.01 0.01 0.01 0.01 0.02 0.01 0.01 0.01 0.02
0.00 0.00 0.00 0.00 0.00 0.00 0.00 0.00 0.01 0.01 0.01 0.01 0.01 0.01 0.01 0.01 0.01 0.00 0.00 0.01 0.01 0.00 0.00 0.00 0.00 0.01 0.01 0.01 0.02 0.03 0.02 0.02 0.02 0.01 0.01 0.01 0.01 0.01 0.01 0.02 0.02 0.02 0.02 0.01
0.00 0.00 0.00 0.00 0.00 0.00 0.00 0.00 0.00 0.01 0.01 0.01 0.01 0.01 0.00 0.00 0.01 0.00 0.00 0.01 0.00 0.00 0.00 0.00 0.00 0.01 0.01 0.02 0.03 0.03 0.03 0.02 0.01 0.01 0.01 0.01 0.01 0.01 0.01 0.02 0.03 0.02 0.01 0.01
0.00 0.00 0.01 0.01 0.01 0.00 0.01 0.00 0.00 0.01 0.01 0.01 0.00 0.00 0.00 0.00 0.00 0.00 0.00 0.00 0.00 0.00 0.00 0.00 0.00 0.01 0.01 0.02 0.03 0.02 0.02 0.02 0.01 0.01 0.01 0.01 0.01 0.01 0.02 0.02 0.02 0.02 0.02 0.02
0.00 0.00 0.00 0.00 0.00 0.00 0.01 0.01 0.01 0.01 0.01 0.01 0.01 0.01 0.01 0.01 0.01 0.00 0.00 0.00 0.00 0.00 0.00 0.01 0.01 0.02 0.02 0.02 0.02 0.01 0.02 0.02 0.02 0.02 0.02 0.02 0.02 0.03 0.03 0.03 0.03 0.04 0.04 0.05
0.00 0.00 0.01 0.01 0.00 0.01 0.01 0.01 0.01 0.01 0.01 0.01 0.02 0.02 0.02 0.01 0.02 0.03 0.01 0.01 0.01 0.01 0.01 0.02 0.02 0.03 0.04 0.03 0.02 0.02 0.03 0.03 0.03 0.03 0.03 0.03 0.02 0.02 0.02 0.02 0.03 0.04 0.05 0.04
MSLP
1009.41 1010.04 1010.47 1010.71 1010.83 1010.90 1010.99 1011.13 1011.35 1011.60 1011.82 1011.97 1012.00 1011.87 1011.61 1011.27 1010.89 1010.57 1010.34 1010.24 1010.28 1010.41 1010.60 1010.79 1010.96 1011.08 1011.17 1011.25 1011.38 1011.59 1011.90 1012.32 1012.81 1013.33 1013.83 1014.24 1014.53 1014.69 1014.73 1014.69 1014.62 1014.56 1014.56 1014.64
1009.73 1010.19 1010.46 1010.58 1010.65 1010.75 1010.93 1011.24 1011.64 1012.06 1012.42 1012.65 1012.67 1012.47 1012.08 1011.57 1011.03 1010.56 1010.24 1010.09 1010.13 1010.30 1010.55 1010.80 1011.00 1011.12 1011.17 1011.20 1011.25 1011.38 1011.64 1012.03 1012.52 1013.07 1013.60 1014.05 1014.38 1014.55 1014.57 1014.50 1014.38 1014.27 1014.24 1014.29
1009.91 1010.18 1010.28 1010.30 1010.35 1010.51 1010.84 1011.34 1011.95 1012.58 1013.10 1013.40 1013.42 1013.13 1012.60 1011.89 1011.16 1010.52 1010.08 1009.86 1009.89 1010.10 1010.40 1010.73 1010.98 1011.14 1011.20 1011.20 1011.20 1011.27 1011.48 1011.83 1012.30 1012.85 1013.40 1013.88 1014.22 1014.41 1014.43 1014.33 1014.18 1014.04 1013.97 1014.01
1009.98 1010.06 1010.01 1009.95 1010.00 1010.25 1010.76 1011.48 1012.33 1013.17 1013.84 1014.22 1014.22 1013.83 1013.12 1012.20 1011.24 1010.40 1009.79 1009.48 1009.47 1009.70 1010.07 1010.47 1010.81 1011.04 1011.13 1011.15 1011.14 1011.18 1011.35 1011.66 1012.11 1012.65 1013.21 1013.70 1014.06 1014.26 1014.29 1014.20 1014.04 1013.88 1013.80 1013.83
1010.01 1009.91 1009.74 1009.63 1009.71 1010.08 1010.76 1011.71 1012.79 1013.82 1014.63 1015.05 1015.01 1014.50 1013.59 1012.44 1011.23 1010.16 1009.36 1008.92 1008.84 1009.06 1009.48 1009.96 1010.40 1010.71 1010.89 1010.96 1010.97 1011.02 1011.18 1011.47 1011.90 1012.43 1012.98 1013.49 1013.87 1014.10 1014.15 1014.08 1013.94 1013.80 1013.73 1013.76
1010.07 1009.82 1009.55 1009.41 1009.55 1010.04 1010.90 1012.05 1013.32 1014.50 1015.40 1015.84 1015.73 1015.08 1013.97 1012.57 1011.11 1009.79 1008.78 1008.18 1008.00 1008.19 1008.63 1009.18 1009.71 1010.13 1010.41 1010.56 1010.64 1010.73 1010.90 1011.20 1011.62 1012.15 1012.71 1013.22 1013.64 1013.90 1014.00 1013.98 1013.88 1013.78 1013.74 1013.81
1010.17 1009.82 1009.50 1009.36 1009.56 1010.17 1011.17 1012.46 1013.86 1015.14 1016.08 1016.50 1016.31 1015.51 1014.21 1012.58 1010.88 1009.33 1008.12 1007.36 1007.06 1007.18 1007.61 1008.20 1008.80 1009.31 1009.69 1009.94 1010.11 1010.27 1010.48 1010.81 1011.25 1011.78 1012.36 1012.90 1013.35 1013.66 1013.83 1013.87 1013.85 1013.82 1013.83 1013.94
1010.35 1009.94 1009.60 1009.49 1009.75 1010.44 1011.52 1012.90 1014.36 1015.66 1016.59 1016.96 1016.67 1015.75 1014.29 1012.49 1010.60 1008.87 1007.48 1006.56 1006.14 1006.18 1006.56 1007.14 1007.77 1008.35 1008.82 1009.16 1009.42 1009.66 1009.94 1010.31 1010.79 1011.35 1011.94 1012.52 1013.01 1013.39 1013.63 1013.76 1013.82 1013.88 1013.97 1014.14
1010.58 1010.16 1009.84 1009.77 1010.07 1010.79 1011.90 1013.28 1014.71 1015.98 1016.84 1017.14 1016.77 1015.76 1014.21 1012.32 1010.34 1008.50 1006.99 1005.95 1005.41 1005.35 1005.64 1006.17 1006.79 1007.39 1007.90 1008.32 1008.66 1008.97 1009.32 1009.75 1010.27 1010.86 1011.49 1012.10 1012.65 1013.08 1013.41 1013.63 1013.79 1013.94 1014.12 1014.37
1010.84 1010.45 1010.17 1010.13 1010.45 1011.16 1012.22 1013.52 1014.86 1016.01 1016.78 1016.99 1016.58 1015.54 1014.00 1012.12 1010.14 1008.29 1006.75 1005.65 1005.02 1004.84 1005.03 1005.45 1006.00 1006.56 1007.07 1007.51 1007.90 1008.28 1008.70 1009.18 1009.75 1010.38 1011.04 1011.69 1012.28 1012.78 1013.18 1013.49 1013.75 1014.00 1014.27 1014.59
1011.10 1010.78 1010.55 1010.54 1010.83 1011.47 1012.42 1013.56 1014.73 1015.72 1016.37 1016.51 1016.08 1015.10 1013.66 1011.91 1010.06 1008.32 1006.84 1005.73 1005.05 1004.77 1004.82 1005.11 1005.52 1005.98 1006.43 1006.85 1007.25 1007.66 1008.13 1008.66 1009.27 1009.94 1010.64 1011.32 1011.95 1012.50 1012.97 1013.36 1013.71 1014.05 1014.40 1014.80
1011.36 1011.12 1010.94 1010.93 1011.17 1011.69 1012.46 1013.39 1014.33 1015.13 1015.63 1015.72 1015.33 1014.47 1013.22 1011.70 1010.09 1008.56 1007.22 1006.18 1005.49 1005.12 1005.03 1005.14 1005.39 1005.69 1006.02 1006.37 1006.74 1007.16 1007.65 1008.22 1008.87 1009.57 1010.29 1011.00 1011.67 1012.26 1012.78 1013.25 1013.67 1014.09 1014.53 1015.00
1011.62 1011.46 1011.32 1011.29 1011.44 1011.80 1012.35 1013.02 1013.71 1014.29 1014.65 1014.69 1014.36 1013.68 1012.69 1011.49 1010.20 1008.95 1007.83 1006.91 1006.24 1005.80 1005.57 1005.50 1005.54 1005.66 1005.84 1006.08 1006.38 1006.78 1007.28 1007.87 1008.54 1009.28 1010.03 1010.76 1011.45 1012.08 1012.65 1013.16 1013.66 1014.15 1014.66 1015.20
1011.92 1011.82 1011.70 1011.63 1011.67 1011.83 1012.13 1012.52 1012.93 1013.28 1013.50 1013.50 1013.27 1012.79 1012.10 1011.25 1010.32 1009.39 1008.53 1007.77 1007.15 1006.66 1006.29 1006.04 1005.87 1005.79 1005.80 1005.91 1006.14 1006.49 1006.98 1007.59 1008.29 1009.05 1009.83 1010.58 1011.30 1011.96 1012.56 1013.13 1013.68 1014.23 1014.81 1015.40
1012.28 1012.22 1012.10 1011.97 1011.87 1011.83 1011.87 1011.97 1012.11 1012.23 1012.30 1012.28 1012.13 1011.85 1011.45 1010.95 1010.38 1009.79 1009.18 1008.60 1008.04 1007.52 1007.04 1006.61 1006.25 1005.98 1005.82 1005.80 1005.95 1006.26 1006.74 1007.36 1008.09 1008.88 1009.68 1010.46 1011.20 1011.89 1012.53 1013.14 1013.74 1014.35 1014.97 1015.62
1012.70 1012.66 1012.52 1012.31 1012.08 1011.84 1011.63 1011.47 1011.34 1011.25 1011.19 1011.12 1011.04 1010.93 1010.79 1010.60 1010.35 1010.04 1009.68 1009.25 1008.76 1008.22 1007.65 1007.08 1006.55 1006.12 1005.82 1005.69 1005.76 1006.04 1006.52 1007.16 1007.91 1008.73 1009.57 1010.38 1011.16 1011.88 1012.55 1013.20 1013.84 1014.49 1015.16 1015.84
1013.18 1013.14 1012.97 1012.69 1012.32 1011.91 1011.49 1011.09 1010.74 1010.45 1010.25 1010.14 1010.09 1010.11 1010.15 1010.20 1010.20 1010.13 1009.95 1009.65 1009.22 1008.67 1008.03 1007.36 1006.71 1006.15 1005.74 1005.54 1005.56 1005.82 1006.30 1006.96 1007.75 1008.60 1009.48 1010.33 1011.14 1011.89 1012.60 1013.28 1013.96 1014.64 1015.34 1016.04
1013.70 1013.63 1013.42 1013.07 1012.60 1012.05 1011.46 1010.87 1010.34 1009.90 1009.59 1009.41 1009.37 1009.45 1009.61 1009.80 1009.96 1010.05 1010.00 1009.78 1009.39 1008.84 1008.16 1007.42 1006.70 1006.07 1005.60 1005.35 1005.35 1005.61 1006.11 1006.79 1007.61 1008.49 1009.40 1010.29 1011.13 1011.92 1012.66 1013.37 1014.07 1014.77 1015.49 1016.20
1014.19 1014.09 1013.83 1013.43 1012.88 1012.24 1011.53 1010.83 1010.17 1009.62 1009.21 1008.97 1008.91 1009.00 1009.20 1009.46 1009.71 1009.86 1009.88 1009.71 1009.34 1008.79 1008.10 1007.33 1006.58 1005.92 1005.44 1005.18 1005.18 1005.44 1005.95 1006.66 1007.49 1008.41 1009.34 1010.25 1011.12 1011.93 1012.70 1013.43 1014.15 1014.87 1015.58 1016.29
1014.60 1014.45 1014.15 1013.70 1013.11 1012.42 1011.66 1010.89 1010.17 1009.56 1009.10 1008.81 1008.71 1008.78 1008.97 1009.23 1009.48 1009.65 1009.68 1009.52 1009.16 1008.62 1007.93 1007.18 1006.43 1005.79 1005.32 1005.07 1005.08 1005.36 1005.88 1006.59 1007.43 1008.35 1009.29 1010.21 1011.09 1011.92 1012.71 1013.46 1014.19 1014.90 1015.61 1016.31
1014.86 1014.64 1014.30 1013.82 1013.22 1012.52 1011.77 1011.00 1010.28 1009.66 1009.18 1008.87 1008.73 1008.76 1008.91 1009.13 1009.34 1009.48 1009.48 1009.31 1008.95 1008.43 1007.77 1007.05 1006.35 1005.74 1005.30 1005.08 1005.11 1005.39 1005.91 1006.60 1007.43 1008.33 1009.25 1010.17 1011.05 1011.88 1012.68 1013.43 1014.16 1014.88 1015.57 1016.25
1014.91 1014.62 1014.23 1013.73 1013.14 1012.47 1011.77 1011.06 1010.39 1009.81 1009.36 1009.05 1008.90 1008.89 1008.98 1009.14 1009.29 1009.37 1009.34 1009.15 1008.79 1008.29 1007.68 1007.01 1006.37 1005.82 1005.43 1005.24 1005.28 1005.56 1006.04 1006.70 1007.48 1008.34 1009.23 1010.12 1010.98 1011.81 1012.60 1013.36 1014.09 1014.80 1015.48 1016.14
1014.72 1014.35 1013.90 1013.39 1012.83 1012.22 1011.60 1010.98 1010.41 1009.92 1009.53 1009.25 1009.11 1009.08 1009.13 1009.22 1009.31 1009.33 1009.26 1009.06 1008.71 1008.25 1007.69 1007.10 1006.53 1006.04 1005.70 1005.54 1005.58 1005.83 1006.27 1006.87 1007.58 1008.38 1009.21 1010.06 1010.89 1011.71 1012.49 1013.24 1013.98 1014.68 1015.36 1016.01
1014.27 1013.81 1013.31 1012.79 1012.27 1011.74 1011.22 1010.73 1010.28 1009.90 1009.60 1009.39 1009.27 1009.24 1009.26 1009.31 1009.34 1009.32 1009.22 1009.02 1008.70 1008.28 1007.80 1007.28 1006.78 1006.37 1006.07 1005.92 1005.95 1006.16 1006.54 1007.06 1007.70 1008.42 1009.18 1009.98 1010.77 1011.57 1012.34 1013.10 1013.84 1014.55 1015.24 1015.88
1013.58 1013.03 1012.49 1011.97 1011.48 1011.04 1010.64 1010.28 1009.97 1009.72 1009.52 1009.39 1009.32 1009.29 1009.30 1009.32 1009.32 1009.28 1009.17 1008.98 1008.70 1008.34 1007.93 1007.50 1007.08 1006.72 1006.46 1006.33 1006.34 1006.50 1006.81 1007.24 1007.79 1008.43 1009.12 1009.86 1010.62 1011.39 1012.16 1012.93 1013.68 1014.41 1015.11 1015.77
1012.68 1012.06 1011.48 1010.98 1010.54 1010.18 1009.89 1009.67 1009.49 1009.36 1009.27 1009.21 1009.18 1009.18 1009.19 1009.20 1009.20 1009.15 1009.05 1008.88 1008.65 1008.36 1008.03 1007.68 1007.34 1007.04 1006.81 1006.68 1006.66 1006.77 1007.00 1007.36 1007.82 1008.37 1009.00 1009.68 1010.41 1011.17 1011.94 1012.72 1013.49 1014.24 1014.97 1015.65
Thickness
5814 5799 5791 5797 5802 5803 5797 5790 5786 5795 5809 5801 5794 5795 5802 5808 5806 5803 5802 5801 5800 5801 5805 5804 5802 5801 5798 5795 5793 5792 5790 5789 5787 5783 5780 5777 5775 5775 5774 5774 5773 5772 5770 5768
5797 5793 5809 5814 5811 5805 5796 5787 5787 5797 5807 5800 5792 5794 5803 5807 5807 5806 5804 5802 5802 5801 5802 5802 5801 5799 5797 5795 5793 5791 5790 5788 5787 5785 5782 5779 5777 5775 5774 5773 5772 5771 5770 5768
5793 5804 5818 5812 5804 5797 5793 5788 5789 5790 5796 5797 5790 5784 5793 5803 5808 5809 5808 5807 5806 5804 5802 5801 5800 5798 5797 5795 5794 5792 5789 5788 5786 5785 5781 5778 5775 5774 5772 5770 5770 5770 5768 5767
5798 5810 5813 5807 5802 5800 5787 5803 5800 5793 5779 5769 5779 5757 5782 5791 5796 5802 5805 5807 5807 5807 5806 5803 5801 5799 5799 5798 5797 5793 5790 5788 5787 5785 5781 5776 5772 5769 5770 5769 5769 5768 5767 5766
5797 5809 5808 5803 5806 5807 5800 5807 5799 5790 5777 5765 5769 5758 5769 5786 5787 5796 5805 5809 5810 5810 5808 5806 5805 5804 5802 5800 5797 5794 5790 5787 5786 5783 5781 5777 5773 5771 5770 5769 5768 5767 5766 5765
5803 5816 5816 5813 5817 5816 5809 5797 5786 5773 5763 5750 5761 5755 5760 5776 5789 5799 5807 5810 5811 5811 5810 5808 5807 5804 5801 5799 5797 5794 5789 5786 5785 5782 5779 5777 5773 5770 5768 5766 5765 5764 5764 5763
5790 5803 5815 5820 5806 5806 5799 5773 5749 5746 5736 5742 5762 5757 5763 5792 5801 5806 5808 5810 5811 5811 5809 5806 5803 5801 5799 5797 5795 5793 5789 5785 5784 5781 5778 5776 5773 5770 5768 5766 5764 5762 5761 5760
5769 5773 5803 5813 5806 5795 5789 5777 5748 5736 5733 5742 5756 5753 5776 5801 5807 5811 5812 5812 5811 5809 5808 5806 5805 5802 5799 5797 5794 5792 5788 5784 5782 5780 5778 5776 5773 5770 5768 5766 5764 5762 5760 5759
5765 5771 5803 5814 5816 5805 5785 5773 5775 5750 5743 5737 5745 5760 5781 5800 5802 5805 5807 5807 5806 5807 5807 5805 5804 5801 5799 5796 5794 5791 5787 5784 5781 5779 5777 5774 5772 5769 5767 5765 5763 5761 5759 5758
5780 5772 5791 5804 5809 5802 5796 5778 5760 5745 5730 5728 5742 5750 5761 5784 5791 5797 5799 5800 5802 5804 5804 5804 5802 5800 5798 5796 5793 5791 5787 5783 5780 5779 5775 5773 5770 5768 5765 5763 5760 5758 5756 5755
5785 5769 5776 5786 5784 5783 5783 5773 5757 5743 5742 5728 5726 5747 5785 5787 5792 5793 5796 5799 5799 5801 5802 5801 5799 5798 5796 5794 5791 5787 5784 5781 5777 5775 5772 5769 5767 5765 5763 5760 5758 5756 5754 5752
5777 5762 5755 5770 5788 5793 5788 5777 5761 5750 5740 5733 5731 5750 5795 5794 5795 5794 5794 5797 5799 5799 5800 5799 5797 5794 5792 5789 5787 5784 5782 5778 5775 5772 5769 5766 5763 5761 5759 5757 5755 5754 5751 5750
5774 5756 5741 5749 5763 5776 5777 5774 5765 5753 5739 5728 5731 5754 5790 5791 5791 5792 5793 5794 5795 5796 5795 5794 5792 5790 5788 5786 5783 5781 5778 5775 5773 5770 5766 5763 5760 5758 5756 5754 5753 5750 5748 5746
5776 5751 5745 5740 5749 5763 5766 5769 5764 5754 5738 5734 5743 5758 5777 5782 5784 5786 5788 5790 5791 5791 5790 5788 5786 5785 5784 5782 5779 5778 5774 5772 5770 5767 5763 5760 5758 5756 5753 5751 5749 5747 5745 5743
5767 5748 5751 5754 5762 5765 5764 5765 5763 5759 5754 5748 5755 5758 5771 5777 5780 5783 5785 5786 5786 5785 5785 5784 5782 5781 5780 5778 5776 5774 5772 5769 5766 5763 5760 5758 5756 5753 5750 5748 5745 5743 5741 5739
5751 5744 5747 5748 5756 5757 5757 5762 5763 5760 5758 5756 5758 5760 5774 5776 5778 5778 5779 5780 5779 5779 5780 5780 5779 5777 5775 5774 5772 5770 5768 5765 5762 5758 5755 5753 5751 5749 5746 5744 5741 5738 5736 5734
5736 5736 5730 5727 5741 5746 5738 5752 5756 5755 5757 5757 5752 5761 5768 5768 5770 5772 5773 5774 5774 5775 5775 5774 5773 5772 5771 5771 5769 5767 5765 5762 5758 5754 5751 5748 5746 5744 5741 5740 5737 5734 5731 5729
5730 5723 5714 5715 5726 5716 5738 5760 5760 5754 5754 5757 5759 5763 5764 5766 5768 5770 5772 5770 5770 5771 5770 5769 5768 5768 5767 5767 5765 5763 5760 5756 5753 5750 5747 5744 5741 5739 5737 5734 5732 5729 5727 5724
5727 5719 5706 5701 5704 5714 5735 5750 5751 5746 5744 5754 5754 5758 5759 5761 5762 5762 5767 5768 5767 5767 5766 5766 5766 5764 5763 5761 5760 5757 5754 5750 5748 5746 5743 5740 5737 5734 5732 5729 5727 5725 5722 5720
5716 5715 5703 5696 5700 5700 5726 5748 5755 5747 5733 5751 5751 5750 5751 5752 5742 5748 5759 5760 5761 5761 5760 5760 5759 5757 5755 5755 5753 5749 5746 5743 5741 5740 5738 5736 5733 5730 5727 5725 5723 5720 5718 5715
5701 5698 5694 5692 5694 5705 5731 5742 5746 5724 5729 5748 5747 5746 5745 5742 5742 5747 5752 5752 5753 5754 5754 5753 5752 5750 5748 5748 5746 5742 5739 5737 5737 5735 5733 5730 5727 5725 5723 5720 5718 5715 5712 5709
5691 5687 5685 5683 5687 5698 5729 5731 5726 5728 5739 5741 5740 5740 5738 5738 5740 5742 5743 5744 5744 5745 5745 5744 5742 5742 5742 5741 5738 5734 5732 5733 5732 5729 5726 5724 5722 5720 5719 5714 5712 5709 5706 5703
5686 5689 5687 5690 5695 5710 5718 5722 5728 5730 5730 5732 5732 5733 5733 5731 5731 5733 5734 5734 5734 5735 5735 5735 5734 5733 5733 5732 5730 5727 5727 5726 5724 5721 5719 5717 5716 5714 5712 5709 5706 5703 5700 5697
5685 5686 5684 5686 5697 5706 5712 5717 5721 5723 5724 5726 5726 5726 5726 5724 5724 5724 5724 5724 5724 5725 5725 5725 5724 5722 5722 5722 5722 5721 5720 5718 5716 5713 5711 5710 5708 5706 5705 5702 5700 5697 5694 5691
5680 5680 5677 5679 5690 5698 5704 5708 5711 5714 5716 5717 5717 5717 5717 5716 5715 5715 5714 5714 5715 5715 5715 5714 5713 5714 5714 5714 5714 5714 5712 5710 5707 5705 5703 5701 5700 5698 5696 5695 5693 5691 5688 5685
5672 5673 5672 5676 5686 5686 5692 5701 5704 5703 5704 5706 5706 5706 5707 5707 5706 5707 5706 5706 5706 5706 5706 5704 5703 5704 5705 5704 5705 5705 5704 5702 5699 5697 5695 5693 5691 5689 5688 5685 5683 5681 5679 5677